Location: Csohesd
(46.2500°N, 22.6167°E)
Time: 05:57:27
(UTC+00:00)

SL-19 R/B - Pass Details

Date: 21 October 2021
Orbit: 874 x 1209 km, 100.6° (Epoch: 04 December)

Event Time Altitude Azimuth Distance (km) Brightness Sun altitude
Rises 16:31:17 0° 16° (NNE) 3,593 7.3 -10.8°
Reaches altitude 10° 16:33:45 10° 16° (NNE) 2,611 6.5 -11.3°
Maximum altitude 16:39:31 87° 289° (WNW) 892 4.3 -12.3°
Drops below altitude 10° 16:45:04 10° 200° (SSW) 2,518 7.0 -13.2°
Sets 16:47:25 0° 200° (SSW) 3,455 7.7 -13.6°
